Погода в Керобокане

Индонезия     8°05′08″S   115°08′06″E
темп.,
°C
ветер,
м/с
пор.,
м/с
влажн.,
%
обл.,
%
осадки,
мм/ч
давл.,
гПа
погр.,
м
2 марта, вт
вт223:00+27з23772 0.8 1011379
02:00+27юз338017 0.8 1010252
05:00+26зюз337910 0.0 1008274
08:00+27зюз22775 0.0 1010245
11:00+28сз33760 0.0 1010462
14:00+28зсз44760 0.6 1008444
17:00+28зсз33741 1.6 1007289
20:00+28зюз22740 2.4 1010127
3 марта, ср
ср323:00+27зюз22740 1.1 1012167
02:00+27юз33761 1.2 1010259
05:00+27зюз23741 0.1 1009243
08:00+27з11730 0.1 1011193
11:00+28сз33750 0.1 1011434
14:00+28ссз33749 1.0 1009488
17:00+28ссз22730 0.7 1008425
20:00+28сз12758 2.6 1010155
4 марта, чт
чт423:00+27зсз567735 5.6 1012469
02:00+26з668233 6.3 1011602
05:00+27з458196 0.0 1010581
08:00+27з227898 0.1 1012246
11:00+28сз227477 0.0 1012299
14:00+28сз227367 0.5 1009303
17:00+28зюз0171100 1.3 1008277
20:00+28ссв0072100 2.0 1011149
5 марта, пт
пт523:00+27з1275100 0.2 1011129
02:00+27юз2271100 0.4 1010174
05:00+27юз2370100 0.1 1010284
08:00+27ююв2373100 0.8 1011269
11:00+27всв4479100 1.6 1012349
14:00+27св3376100 3.1 1009330
17:00+27св3376100 0.8 1008275
20:00+27с1275100 0.8 1010308
6 марта, сб
сб623:00+27зсз2275100 0.0 1010316
02:00+26зюз2378100 0.0 1009272
05:00+26юз2380100 0.2 1009255
08:00+27юз1279100 3.7 1011118
11:00+27с2373100 1.8 1011312
14:00+28ссз3372100 3.4 1008416
17:00+28сз2268100 0.9 1008541
20:00+28з1274100 0.9 1010283